Theta_e
304 304 306 306 303 291 296 297 294 297 301 298 296 300 302 301 296 294 304 301 307 312 313 319 318 319 320 325 328 325 325 326 325 325 327 330 333 335 337 341 341 341 339 341 341 341 341 341 341 340 339 339 340 344 345 345 346 346 346 347 347 347 347
304 307 307 307 306 302 297 295 295 302 304 300 294 292 292 289 289 294 303 299 300 302 298 313 316 316 318 324 327 329 327 326 325 325 326 329 332 334 337 340 342 343 340 340 341 343 343 342 342 340 340 340 342 346 345 345 346 345 346 347 346 347 346
306 307 303 300 303 306 299 297 303 301 294 293 293 293 287 286 288 291 298 302 302 301 300 310 312 315 317 321 325 326 327 326 326 327 329 332 334 335 335 338 341 341 341 343 343 344 345 344 344 341 341 342 344 347 347 347 346 347 347 348 347 347 347
304 302 298 293 297 303 304 305 301 308 298 295 293 293 293 294 292 293 292 297 294 306 303 311 313 315 318 321 324 326 326 328 327 328 330 332 333 333 334 336 340 342 343 346 347 345 344 343 343 342 342 343 344 347 348 347 348 348 348 347 348 346 348
302 296 297 297 296 296 298 297 295 297 299 301 298 299 297 294 293 291 291 290 296 303 312 312 314 317 319 323 324 324 326 328 329 329 331 332 333 333 334 335 338 340 343 344 348 347 346 345 345 344 342 342 344 346 348 348 347 347 347 348 348 347 348
295 299 303 301 302 299 297 298 297 297 294 294 290 289 298 298 290 289 291 289 297 308 322 319 317 319 324 326 326 326 327 329 330 331 333 333 334 335 335 336 339 339 341 342 346 348 347 344 343 342 342 342 343 343 346 348 348 347 347 348 348 347 348
299 301 306 309 307 307 303 300 303 299 296 295 289 286 291 295 298 302 298 296 298 311 321 321 321 321 323 325 328 328 328 329 330 331 333 334 335 337 339 338 338 339 340 341 343 347 345 344 343 342 342 341 342 343 344 345 347 346 348 348 349 348 348
303 304 307 309 309 306 302 302 302 301 300 301 296 293 296 295 297 292 293 294 298 308 319 321 321 321 322 325 329 328 329 329 331 331 332 332 335 338 341 341 343 340 339 340 343 346 345 344 343 342 343 343 342 343 343 343 344 345 346 348 349 348 348
290 295 299 301 305 303 300 302 300 302 301 303 302 301 298 294 298 299 292 289 294 304 321 322 323 323 324 326 328 330 328 328 330 332 332 333 335 337 338 339 340 340 339 338 340 344 346 345 344 343 343 343 343 343 343 343 343 344 344 345 347 348 347
286 287 287 290 294 297 302 305 303 303 304 303 298 297 296 289 297 300 293 293 297 308 320 321 322 322 322 325 326 328 329 329 330 333 334 334 335 335 337 338 339 339 339 339 339 340 345 346 345 345 344 344 344 344 343 344 343 344 344 347 346 346 346
289 291 293 299 306 300 297 299 302 303 305 304 302 298 294 291 294 297 299 300 304 311 315 318 320 320 321 322 323 326 327 330 331 331 332 334 334 335 336 338 337 339 339 340 340 340 343 346 347 347 346 345 345 345 344 344 344 344 345 347 346 344 345
298 300 302 303 307 300 301 302 301 303 305 303 299 295 295 299 295 292 300 305 306 308 314 316 317 319 319 322 323 323 325 328 330 331 331 341 332 334 335 336 336 336 337 340 342 343 343 344 347 347 348 347 346 345 345 346 346 347 348 347 346 344 344
300 303 303 306 306 304 302 302 302 302 305 302 300 300 302 299 293 292 299 305 306 308 314 317 318 319 319 322 324 325 327 328 329 329 332 332 331 331 334 335 336 336 337 338 340 342 344 345 346 345 347 347 347 347 347 348 349 348 348 345 344 344 343
302 300 302 303 304 303 305 303 302 301 304 304 302 302 303 303 300 301 304 305 305 308 315 318 319 322 322 322 325 326 327 327 328 328 329 331 330 330 331 334 336 338 338 338 339 341 341 344 346 343 339 340 342 345 347 348 348 348 348 345 344 344 343
301 303 304 303 303 303 302 301 302 303 304 305 306 305 306 307 304 306 307 306 305 310 318 318 319 322 321 322 324 326 327 328 328 328 328 329 331 331 332 332 333 337 338 339 339 339 339 340 342 337 335 338 341 344 347 347 347 348 347 345 344 344 343
296 301 301 302 301 301 300 300 302 302 303 300 302 300 305 301 301 303 303 302 303 309 315 317 319 319 320 320 322 324 325 328 329 327 327 328 329 331 332 332 333 336 337 337 338 339 340 340 341 343 339 339 340 341 344 348 348 348 347 345 343 343 344
294 300 301 301 300 297 296 295 301 305 305 305 305 306 311 307 306 300 297 300 306 308 315 316 316 319 318 319 322 323 323 323 325 324 324 327 328 331 332 334 335 335 336 337 337 338 340 341 341 342 344 342 340 342 344 347 347 348 347 345 344 343 344
294 300 301 301 295 289 291 299 304 306 308 304 301 303 306 309 308 303 305 308 308 312 316 316 316 318 319 321 323 325 323 321 323 325 325 327 329 331 333 334 334 334 335 336 338 338 339 340 342 344 347 345 343 343 344 346 346 346 347 346 345 344 344
294 298 299 294 288 291 300 307 308 308 306 305 303 305 308 309 310 308 307 307 309 314 317 318 319 321 322 324 325 323 323 323 327 328 328 328 330 331 332 332 333 333 334 335 337 338 339 341 341 341 343 345 345 345 345 344 345 345 345 345 345 345 345
295 294 292 287 287 296 307 306 307 310 308 308 304 303 306 310 308 309 306 308 310 313 316 317 320 323 325 325 325 323 324 324 327 329 328 329 331 330 332 332 333 334 334 334 335 337 341 341 340 340 341 343 344 344 346 344 343 343 342 342 342 342 343
291 290 291 292 300 300 301 303 307 304 303 304 301 295 302 308 310 309 309 310 312 315 317 319 320 323 324 321 323 329 327 329 330 331 331 332 332 332 334 335 335 335 337 338 339 340 338 339 339 337 337 338 339 339 339 338 339 340 342 342 342 342 343
295 291 291 292 292 289 294 303 309 309 308 307 306 303 301 309 313 313 311 310 312 315 316 317 320 322 318 314 317 325 328 328 326 329 333 334 334 336 336 336 336 337 338 340 341 339 337 337 337 336 335 335 333 333 333 334 335 336 337 339 340 341 343
295 293 289 287 288 291 299 304 308 309 308 308 306 302 297 306 313 314 314 313 314 315 315 315 316 312 308 310 317 324 328 326 326 327 329 330 332 333 335 336 336 336 337 338 339 337 335 334 334 334 334 334 333 333 334 332 334 333 334 336 340 342 343
295 293 291 289 294 296 304 308 309 307 308 308 301 291 293 304 313 315 314 314 314 313 313 312 310 308 303 306 314 325 329 328 327 328 329 330 332 333 334 335 335 336 338 335 334 334 333 333 334 334 334 333 335 335 335 333 332 332 336 338 341 342 343
297 298 292 293 298 306 310 310 309 307 309 304 293 287 297 309 314 315 315 314 315 315 314 313 311 311 307 314 323 329 330 328 329 330 331 331 334 334 335 340 343 334 333 333 333 333 332 334 335 334 334 333 334 333 333 331 334 337 340 342 342 339 339
294 294 293 291 293 300 309 311 309 309 306 295 289 300 309 314 314 316 316 316 316 314 313 312 316 322 324 326 326 328 325 327 328 331 332 334 336 340 345 344 339 335 335 333 333 333 332 333 334 333 333 332 333 331 331 330 334 338 338 336 336 335 334
295 294 292 290 288 304 313 311 309 311 299 297 303 312 317 318 316 316 316 315 315 315 314 318 324 325 325 324 325 326 329 330 330 330 331 331 332 333 334 336 339 335 332 330 330 330 333 333 335 335 333 333 333 334 330 335 338 336 335 333 332 332 332
290 291 291 288 295 304 313 308 301 308 310 315 314 315 314 317 317 315 317 321 319 318 321 324 325 326 325 324 326 328 329 330 331 331 331 332 333 334 336 336 336 336 332 330 329 330 330 332 332 333 333 334 334 336 334 337 338 337 332 330 330 329 329
301 299 300 306 309 310 311 314 312 314 316 318 317 316 313 313 318 318 317 318 319 320 324 325 325 322 323 325 328 329 329 330 330 330 331 332 332 333 334 335 338 335 332 329 328 328 327 329 329 330 330 330 333 332 332 335 336 334 332 330 328 326 324
310 311 310 313 313 314 315 318 318 318 318 319 319 318 316 317 317 318 319 321 321 320 322 321 321 323 325 326 327 329 329 330 330 331 331 331 332 333 333 332 333 332 330 328 327 327 326 328 329 332 333 332 332 332 333 335 334 332 331 329 328 326 325
296 297 308 312 313 315 316 317 319 320 319 317 318 319 318 318 318 319 321 321 321 321 321 324 324 326 328 328 328 329 329 329 329 329 330 330 331 331 331 332 335 330 328 328 328 328 326 325 326 329 330 331 332 332 334 335 334 331 329 328 327 325 323
300 302 310 315 316 315 316 316 315 316 319 320 320 321 321 320 319 320 321 323 324 325 325 326 327 327 329 328 327 328 328 329 329 329 329 329 329 329 330 332 332 329 328 328 329 328 327 326 326 328 331 333 335 336 337 338 334 331 330 328 325 323 322
312 313 314 313 313 314 315 317 318 317 319 319 320 321 321 320 319 319 322 326 327 327 326 327 328 327 327 328 329 328 328 328 328 328 329 329 329 329 329 329 329 328 328 328 326 326 327 326 326 327 330 333 335 335 337 337 333 330 329 330 326 324 325
305 306 309 313 305 306 309 315 319 321 320 321 319 319 320 320 319 321 325 326 328 328 328 329 329 327 327 328 329 328 328 328 328 328 329 329 328 328 329 330 327 327 328 326 326 327 326 325 325 327 328 331 333 335 336 336 334 330 330 328 326 324 324
305 311 314 315 314 311 313 315 318 322 319 317 316 318 320 321 322 322 324 323 324 326 328 331 329 327 328 328 329 328 328 327 328 328 327 327 328 328 328 327 325 326 326 328 326 326 325 325 325 327 329 331 332 333 334 335 335 332 330 330 328 326 327
315 318 316 319 314 312 314 319 322 323 323 319 319 320 322 322 321 321 322 325 325 326 328 329 331 329 329 329 329 328 328 328 327 327 327 328 328 328 328 326 326 326 326 327 326 326 324 325 326 328 329 331 333 334 333 334 335 333 332 329 326 325 324
312 318 319 321 320 320 321 321 322 323 324 322 322 323 321 321 322 323 323 323 324 326 327 328 329 330 329 329 329 328 327 328 328 328 330 330 330 328 327 327 326 326 325 325 325 325 325 328 331 332 331 332 333 333 331 334 335 332 330 328 326 326 327
Wind_Speed
2 4 3 0 3 1 3 3 3 5 4 5 0 1 2 8 7 2 0 2 2 2 4 1 2 2 1 1 3 7 6 6 6 6 6 6 6 6 6 7 7 7 6 7 7 7 7 7 7 8 9 9 9 9 10 10 10 10 11 10 10 9 8
2 1 2 0 2 4 4 1 4 3 2 5 3 1 2 4 5 1 1 1 2 1 1 2 1 1 1 1 2 4 6 6 7 7 6 7 8 8 7 6 6 8 7 8 7 7 8 8 9 9 9 9 7 6 11 11 10 12 11 11 10 10 9
3 4 6 7 5 1 2 2 2 2 3 4 3 3 1 2 1 0 1 2 2 5 4 1 3 4 2 3 2 3 3 5 7 6 6 6 6 5 5 5 6 7 7 7 8 8 8 8 9 9 9 9 8 7 10 10 11 12 12 10 10 9 9
1 2 4 1 5 7 3 3 5 0 4 2 1 1 4 6 3 3 2 3 2 3 3 7 7 5 5 4 3 4 4 3 4 4 5 6 6 6 5 5 5 6 7 8 9 9 9 9 9 8 9 7 8 8 10 10 9 9 10 11 10 10 10
4 1 1 2 2 2 4 6 4 4 2 2 3 1 1 2 5 3 3 1 5 6 3 6 8 7 6 6 5 3 3 2 3 3 6 6 6 6 6 6 5 6 6 6 8 9 9 8 7 8 8 8 7 7 10 10 11 11 11 11 10 10 9
2 1 4 4 5 4 4 3 1 3 3 4 3 2 4 2 6 4 3 4 5 6 2 4 8 6 5 5 7 4 3 2 3 3 3 5 5 5 6 6 6 6 6 5 6 6 6 7 7 8 8 7 7 8 9 10 9 10 11 10 10 10 9
2 2 3 2 2 2 2 3 0 4 4 5 4 2 3 3 2 5 4 4 3 3 2 2 3 4 5 4 5 4 3 2 2 2 3 2 3 3 3 4 5 5 6 7 8 8 8 9 9 8 7 8 8 9 8 8 9 10 11 10 9 9 9
6 3 3 7 6 2 3 2 1 1 0 1 3 5 3 4 3 3 1 2 2 3 3 4 3 4 4 4 6 6 3 2 1 2 2 3 2 1 2 2 0 5 5 4 6 7 7 6 7 8 7 7 7 7 8 8 10 10 9 9 9 9 9
5 7 7 8 7 4 1 1 5 1 1 6 6 4 3 4 2 2 6 2 3 4 1 3 4 4 5 4 2 4 4 3 3 3 3 3 3 2 2 2 1 3 5 5 6 6 7 7 6 6 7 7 7 7 7 8 9 10 8 6 8 10 11
1 1 1 1 3 2 2 0 3 4 5 4 3 3 2 3 2 3 3 2 4 3 1 3 4 5 4 3 3 3 4 5 5 4 3 3 3 3 2 1 2 3 4 4 4 5 5 7 8 8 8 7 8 7 8 8 8 7 8 6 6 9 10
7 7 5 6 3 2 1 1 1 2 1 5 7 6 5 2 2 4 4 7 3 3 5 4 4 4 6 5 4 5 4 4 4 4 4 5 4 4 4 3 2 1 3 4 5 5 6 6 7 8 9 9 8 7 8 7 6 7 7 6 5 8 10
9 10 7 3 5 4 2 1 3 1 2 2 3 3 4 5 7 1 2 5 9 9 6 6 5 5 4 4 5 4 4 5 6 5 4 4 3 3 2 2 3 3 2 2 4 5 6 6 6 6 7 8 8 8 8 7 7 7 5 6 7 6 8
3 6 5 4 1 0 2 2 3 1 1 3 2 2 5 6 3 5 2 3 5 5 7 9 9 9 10 10 9 9 8 4 2 2 4 4 4 4 5 4 3 3 3 3 3 4 5 5 6 7 7 6 5 6 5 6 7 8 7 6 6 7 6
2 4 4 4 2 2 1 1 2 2 1 1 4 4 5 6 3 7 8 9 7 6 8 10 10 8 8 6 3 3 4 5 6 4 5 5 5 5 5 5 5 5 5 4 4 4 4 5 5 3 8 7 3 4 7 7 8 8 8 8 7 7 7
1 2 5 4 5 3 2 3 5 3 1 2 3 4 3 5 4 4 8 8 4 4 10 10 5 5 2 3 4 7 7 6 6 6 5 5 5 5 4 4 5 6 5 4 4 3 3 3 4 9 10 10 9 3 2 6 7 7 7 8 8 7 8
1 2 3 2 4 5 4 3 4 8 1 4 3 2 4 4 6 4 6 6 3 1 4 3 3 5 6 7 6 5 5 6 5 6 6 6 6 5 6 5 3 4 5 4 4 4 4 3 3 9 9 8 6 5 4 4 6 7 7 6 7 8 8
1 3 2 3 3 5 6 4 1 1 0 0 1 2 2 1 8 7 6 7 7 6 6 7 4 7 5 5 5 5 4 4 5 4 4 4 4 5 5 4 4 5 5 4 5 4 4 4 3 5 7 6 7 6 5 4 2 2 3 5 6 7 7
2 2 1 3 3 2 3 7 5 2 0 2 6 3 5 4 5 5 7 10 4 6 8 10 8 8 8 7 7 6 8 6 2 1 3 4 4 3 4 4 3 3 2 2 1 3 3 3 3 4 5 6 7 7 7 4 4 4 4 5 5 5 4
4 1 3 1 1 6 7 5 4 3 5 7 7 3 3 2 4 6 6 5 7 10 11 12 11 9 5 5 7 3 5 6 6 7 5 5 5 5 5 4 3 3 3 3 3 3 3 3 2 3 1 2 3 5 5 5 5 5 4 3 4 5 6
2 3 3 2 5 4 2 5 5 4 5 3 7 4 4 4 3 10 8 6 5 7 7 6 8 9 6 3 1 3 4 5 7 6 5 5 5 4 4 4 3 4 4 3 3 2 1 2 2 1 1 1 3 4 4 4 3 4 5 5 5 5 4
4 4 6 6 2 3 2 2 1 1 2 2 2 1 3 4 1 6 10 8 7 8 7 7 5 6 7 5 1 0 3 4 5 7 6 6 5 4 4 5 5 4 5 5 3 2 3 3 3 3 2 3 4 4 3 1 2 2 3 5 7 8 7
4 5 1 1 1 5 5 7 4 3 3 5 8 8 2 5 5 1 10 8 7 6 5 6 6 7 9 5 3 2 1 4 4 2 3 2 3 4 4 4 4 4 4 4 3 5 3 3 3 2 2 2 2 2 1 1 0 0 1 3 4 5 6
3 2 4 3 4 7 9 7 6 3 7 8 5 8 2 3 2 1 7 9 7 10 10 8 7 6 5 6 6 6 2 2 3 5 4 4 4 4 5 5 5 4 4 4 4 4 4 3 2 2 2 1 0 0 0 0 0 1 2 4 3 4 6
4 5 4 4 3 3 5 8 2 4 5 8 6 2 3 3 1 3 5 8 7 4 5 6 6 7 5 6 7 5 5 3 3 6 8 7 7 5 4 3 3 3 3 4 4 4 4 1 0 1 1 2 1 1 1 0 1 3 4 4 4 3 2
7 9 3 0 2 3 2 4 3 4 5 7 4 5 8 6 5 4 7 7 6 6 5 4 3 4 4 6 5 6 4 6 4 4 5 6 7 6 4 4 5 5 4 4 4 3 2 2 2 2 0 0 0 0 0 1 2 3 1 1 2 1 2
6 6 7 7 3 4 4 2 6 4 3 4 4 4 4 8 5 4 7 8 5 6 6 4 4 4 3 4 5 5 5 6 4 6 8 8 6 4 4 6 5 5 5 4 3 2 1 2 3 3 3 3 2 2 1 2 2 0 1 1 1 1 0
2 2 3 1 2 3 6 4 3 2 5 5 7 5 2 6 7 6 4 6 6 6 3 4 7 5 4 6 6 7 8 8 7 7 7 7 6 5 5 5 3 5 4 3 2 1 0 2 3 4 3 3 3 3 3 3 1 2 1 1 0 0 0
3 3 3 3 5 5 3 3 5 3 5 9 9 9 6 3 5 6 4 2 5 5 8 7 6 6 5 3 7 8 7 7 6 6 7 6 6 5 4 5 5 5 5 3 2 0 1 1 1 1 2 3 3 3 3 1 1 2 2 1 0 1 1
1 1 2 2 2 2 1 4 3 4 5 7 8 8 7 6 2 3 7 5 5 7 9 9 8 5 4 7 8 10 8 8 8 8 7 7 6 6 6 5 4 4 6 5 3 2 1 2 2 2 2 2 0 0 1 2 1 2 2 2 1 0 1
1 1 1 2 3 4 4 3 5 9 4 3 6 7 6 3 4 6 8 6 5 4 7 8 4 6 6 8 5 6 6 7 6 6 6 5 4 5 5 4 4 4 4 3 3 3 1 1 2 2 0 1 0 1 2 2 2 1 2 2 1 1 0
4 1 6 4 3 2 6 5 3 3 4 4 4 7 8 6 6 7 6 8 6 5 5 7 8 8 8 8 7 8 7 8 6 7 7 6 6 6 6 5 4 4 4 4 4 2 2 2 1 1 2 2 2 2 2 2 0 1 1 2 1 1 1
2 1 1 2 2 2 2 4 6 4 3 5 5 7 8 8 6 7 6 6 5 5 7 7 10 8 8 10 8 7 7 7 7 7 7 7 4 3 4 4 5 4 4 4 4 3 2 2 3 2 1 2 3 3 2 1 2 1 1 1 1 1 2
2 3 4 4 3 3 2 2 1 3 8 9 7 8 8 8 8 6 5 6 6 6 8 6 9 8 5 8 9 9 7 7 6 6 6 6 6 5 4 3 4 5 4 4 3 2 2 3 3 3 1 1 2 3 2 3 3 2 1 1 1 1 1
1 3 2 1 3 1 3 2 3 5 4 9 8 6 7 7 8 8 9 5 5 8 8 9 8 9 6 7 9 9 8 7 7 7 6 6 6 4 4 3 3 3 3 2 3 3 3 3 3 3 2 2 2 2 1 1 2 2 1 0 1 1 1
1 5 5 6 5 3 6 5 4 3 4 7 7 7 7 6 7 9 10 7 5 5 4 7 9 8 9 7 8 8 7 7 7 8 7 7 6 6 4 3 3 3 3 2 3 3 3 3 2 2 2 2 2 3 3 2 2 2 2 1 1 1 0
3 4 4 6 2 1 3 3 4 4 3 6 6 5 6 8 7 7 9 9 9 6 6 4 7 9 8 8 9 9 6 6 6 5 5 7 6 5 4 4 4 3 2 2 3 3 3 3 2 1 1 2 3 3 3 1 3 3 2 2 2 2 2
3 4 4 5 5 3 5 4 4 5 4 6 7 7 7 6 5 6 9 6 8 10 7 6 5 7 10 8 9 10 8 6 6 6 5 5 5 4 3 3 3 3 2 2 2 3 3 2 1 3 3 4 4 4 2 1 2 2 2 1 1 1 0
Wind_Direction
174 193 181 152 113 117 267 57 332 236 195 121 182 359 27 91 58 15 190 349 342 318 348 327 360 85 357 34 122 165 181 185 172 187 187 187 193 193 190 182 190 198 193 187 186 175 179 170 169 173 175 179 180 172 172 173 165 166 175 179 178 182 186
302 189 123 109 125 153 79 75 241 269 99 131 126 238 338 69 112 223 27 219 270 47 262 315 330 315 301 161 154 160 174 179 182 196 191 191 191 196 193 186 190 192 196 186 185 180 178 179 172 174 178 182 182 179 174 172 169 169 177 179 180 182 184
326 358 49 357 332 39 145 192 229 71 319 349 314 90 360 56 26 292 323 308 252 169 243 267 245 229 223 210 181 140 164 174 191 196 196 197 186 176 181 180 171 185 193 183 178 179 176 176 172 178 175 177 177 179 174 176 176 176 176 181 180 182 185
166 34 68 22 306 347 29 30 21 12 108 185 62 200 173 115 173 102 257 32 240 211 216 188 213 223 191 182 180 186 202 201 180 185 185 184 181 183 185 186 179 176 179 171 169 170 169 169 170 174 172 172 175 176 172 177 178 175 176 183 182 185 187
55 357 7 170 159 91 357 25 335 1 350 215 121 2 93 154 160 164 142 309 273 267 213 175 205 203 191 165 177 192 189 202 197 178 175 184 185 184 189 190 186 184 187 168 170 170 171 167 166 166 170 171 171 167 173 176 176 178 182 185 185 188 188
30 225 236 181 169 157 157 152 207 165 71 17 45 294 323 65 100 178 124 221 274 272 240 196 177 194 160 161 153 172 185 177 150 147 147 171 183 192 188 193 187 187 189 171 157 160 157 156 163 172 172 162 166 171 174 175 176 181 183 186 187 188 191
180 216 327 76 83 77 145 144 194 147 136 105 107 95 284 25 13 87 148 119 271 237 192 156 163 167 161 161 146 156 185 184 178 167 149 154 155 153 160 181 197 193 186 182 166 162 163 168 170 170 173 177 178 175 172 175 176 183 186 189 186 184 191
303 319 339 24 30 69 23 334 64 69 75 233 171 174 199 121 335 62 7 58 259 286 209 159 161 161 144 156 155 158 177 182 191 148 170 155 149 188 102 167 176 197 188 166 156 159 163 165 165 172 178 187 184 179 179 176 184 185 186 189 187 186 190
337 345 353 6 338 41 99 308 308 10 143 117 123 99 34 79 293 173 115 175 262 269 178 133 111 106 107 129 161 154 164 202 181 186 203 202 189 179 140 103 91 158 164 163 162 165 168 166 170 170 177 187 190 187 182 184 190 189 189 180 186 190 191
121 284 24 258 308 271 276 29 354 337 102 91 56 70 21 81 291 82 113 199 261 286 158 143 141 123 121 151 159 196 184 173 185 196 200 207 182 177 187 164 103 126 163 168 162 167 170 174 171 175 179 190 194 191 194 190 186 191 195 177 177 191 194
179 203 210 239 125 25 307 291 279 87 19 74 97 110 88 132 214 109 201 167 149 163 199 179 186 172 163 178 167 157 185 192 190 186 180 185 188 183 185 188 169 117 106 145 175 175 177 179 181 183 179 187 192 192 196 197 192 191 194 181 173 187 197
188 182 194 223 163 204 231 192 259 91 184 174 111 120 172 183 87 338 266 175 148 208 194 191 185 198 193 192 189 183 196 195 178 186 190 183 164 182 187 140 162 169 199 172 158 174 176 185 185 186 188 183 187 188 194 194 187 186 189 183 180 181 196
162 160 210 262 314 153 177 261 277 8 188 98 120 191 173 132 133 193 245 139 193 214 191 191 195 186 191 192 192 194 189 175 175 161 180 179 185 183 173 197 191 178 191 202 189 174 181 187 187 186 179 179 175 183 188 182 181 184 173 174 184 186 190
150 189 138 125 147 239 326 210 254 239 167 142 128 156 167 151 163 180 156 148 186 181 190 196 201 194 186 196 175 113 140 182 190 192 193 192 201 198 199 194 198 197 198 196 198 194 181 171 193 87 40 41 321 235 194 183 183 183 168 186 187 193 196
330 1 63 55 49 79 356 319 324 317 225 120 163 152 131 100 88 155 129 127 156 221 176 188 193 174 103 97 143 178 187 181 192 197 204 205 207 209 205 199 195 192 199 197 198 204 215 197 142 121 186 199 214 235 202 187 192 193 185 187 192 193 205
319 314 62 19 45 42 53 342 359 349 133 144 212 156 213 140 174 155 103 108 166 192 153 149 131 128 150 173 184 184 192 195 182 193 202 206 209 202 199 209 198 177 190 192 194 203 216 217 160 152 187 191 181 208 233 229 209 194 191 194 196 202 201
254 263 88 77 61 35 1 312 203 163 202 245 327 19 345 211 145 122 127 199 201 177 147 137 160 154 172 175 187 178 207 205 181 186 190 190 188 191 191 192 181 178 185 198 194 202 204 211 198 187 181 167 185 205 213 214 145 159 196 205 210 210 206
231 261 66 50 56 22 237 230 193 169 79 123 80 92 130 167 132 194 175 172 172 124 145 156 167 167 184 188 200 184 172 177 168 142 166 161 159 149 159 177 170 163 150 119 189 194 195 201 209 205 185 173 186 195 204 204 183 198 195 205 208 221 217
198 234 54 76 178 233 239 276 250 197 143 144 154 133 6 318 102 96 122 132 137 166 159 164 171 172 176 167 160 197 184 144 147 153 164 156 145 144 137 132 138 141 118 97 92 94 127 135 138 120 197 201 161 182 183 186 196 198 213 223 219 207 208
78 88 83 138 243 230 261 274 267 285 89 145 102 54 358 350 218 150 138 163 165 166 161 163 162 159 151 110 99 174 182 151 146 145 165 178 159 155 175 151 158 134 123 124 118 138 187 125 129 142 185 221 160 196 188 176 162 173 191 203 238 279 278
173 194 155 205 254 319 336 345 30 146 185 155 182 106 316 314 248 157 146 161 163 154 162 153 127 117 102 93 84 292 163 138 153 158 171 178 185 169 183 156 160 166 139 123 132 108 88 83 78 70 56 63 57 48 53 42 103 151 178 195 193 195 213
124 132 98 13 140 221 270 239 252 264 178 160 149 107 319 326 354 254 143 152 152 140 128 130 139 110 92 123 206 255 240 123 122 140 150 132 132 138 123 109 113 117 109 91 74 97 95 69 41 26 29 64 80 100 141 178 60 274 238 230 221 218 215
106 77 143 196 172 234 211 223 217 201 135 128 94 67 354 280 305 326 137 136 149 147 147 158 140 112 138 212 223 235 218 157 105 94 88 96 84 99 126 131 125 113 97 107 108 87 78 60 24 43 41 43 62 107 74 65 359 303 275 277 260 234 235
180 163 168 217 193 199 236 225 226 172 132 99 67 85 261 264 281 172 129 137 155 158 140 133 112 135 172 219 229 211 197 167 147 123 115 108 107 101 106 108 127 122 116 96 64 66 73 96 247 34 31 70 47 19 319 201 223 247 255 253 259 265 245
192 169 218 324 287 267 239 214 229 189 137 81 98 196 219 221 199 177 141 153 167 152 145 134 130 221 185 195 179 164 155 96 107 111 110 122 128 132 120 105 97 88 77 90 99 97 111 126 163 192 193 74 60 338 249 195 234 236 215 114 79 10 353
174 189 170 208 224 234 182 225 163 153 80 194 201 231 180 154 194 196 151 158 178 152 153 157 162 192 212 136 135 144 118 130 126 112 108 102 88 80 95 100 95 86 82 87 93 97 173 185 187 193 181 189 187 207 254 266 256 238 165 114 113 103 67
61 72 135 83 160 259 179 171 23 37 124 223 192 145 190 165 170 166 188 161 190 144 153 160 146 144 148 141 139 132 131 128 125 120 113 110 114 110 98 83 93 109 101 99 114 153 237 224 205 202 191 194 204 205 215 247 225 164 142 101 86 164 131
163 163 179 195 214 219 158 121 155 243 177 159 153 140 151 197 163 166 136 185 178 169 136 150 146 156 141 94 123 124 126 125 118 108 109 113 112 109 109 121 123 121 126 140 154 217 252 262 248 230 202 197 210 197 209 264 167 152 148 165 140 41 37
114 200 206 251 227 217 216 152 145 158 146 135 151 134 142 131 129 159 134 156 168 150 145 152 154 155 172 153 153 139 147 135 128 126 132 134 135 132 132 136 139 144 154 165 182 212 251 281 303 317 341 351 268 199 284 312 269 189 186 181 189 107 64
293 88 159 254 10 78 64 41 123 135 137 119 122 126 112 155 142 149 140 159 141 136 140 130 170 154 152 139 141 130 133 125 123 118 116 114 115 120 123 133 149 157 159 172 189 209 260 338 15 343 327 134 209 234 266 271 238 199 177 172 124 84 18
66 89 329 53 122 96 106 102 53 70 124 161 137 116 122 142 134 124 133 139 145 143 132 135 142 145 144 130 134 133 128 128 131 126 123 128 135 139 145 170 161 169 170 185 211 215 263 358 332 287 327 346 291 282 291 285 181 187 187 123 123 149 138
106 203 306 337 348 15 102 129 135 130 117 116 129 128 137 138 138 126 140 118 112 118 126 141 134 144 139 133 138 134 134 138 137 132 131 131 117 122 138 158 172 178 186 194 203 198 231 295 294 291 343 349 328 328 300 167 128 162 170 163 194 180 152
5 46 47 348 13 43 352 6 41 166 143 128 122 126 128 127 116 111 108 121 134 122 138 131 127 127 142 138 138 135 139 136 139 140 142 141 139 143 140 167 169 182 188 202 193 171 207 237 256 276 286 326 342 350 2 124 171 165 174 189 217 233 169
43 151 206 83 92 235 276 269 193 162 164 129 131 120 120 125 125 125 118 116 124 131 139 135 133 138 144 142 136 139 144 143 140 139 145 150 147 158 172 172 175 178 201 186 155 196 223 233 258 269 302 312 316 300 288 226 166 163 176 238 271 261 210
202 237 216 184 181 212 240 205 225 188 159 124 121 136 149 154 142 134 126 119 90 106 132 136 130 134 140 145 131 130 139 147 150 150 151 145 154 170 173 149 169 178 200 160 167 208 234 232 248 290 304 328 327 307 298 267 174 160 173 193 245 274 198
258 210 195 178 140 175 246 217 184 219 186 127 131 146 153 151 153 141 135 141 135 138 137 137 135 137 137 141 134 138 143 148 148 154 150 152 157 162 162 160 169 180 205 176 178 215 224 217 226 272 331 323 332 323 318 260 156 154 171 180 190 191 165
215 229 197 185 171 195 229 214 170 196 194 146 142 152 148 147 154 140 137 145 143 141 140 141 143 135 136 143 139 144 151 161 163 154 148 146 155 146 151 142 161 166 156 159 180 205 225 220 101 62 53 22 4 349 345 26 105 160 170 168 205 227 213